Back to Top

Language: 

My Weather Underground Personal Weather Station Historical Data with Graphs...

Delerius Weather Station Historical Data
Daily Summary for February 11, 2017 Units:  Metric    English   Both
« Previous Day
Next Day »
Daily Weekly Monthly Yearly Custom
  High: Low: Average:
Temperature: 3 °C 1.2 °C 2.3 °C
Dew Point: 2.4 °C -0.7 °C 1.6 °C
Humidity: 97 % 85 % 95 %
Wind Speed: 14.5 km/h 0 km/h 7.9 km/h
Wind Gust: 22.5 km/h - -
Wind:- - ESE
Pressure: 1027 hPa 1024.9 hPa -
Precipitation: 3.81 mm    
Historical Graphs
 
 
Tabular Data for February 11, 2017
Time Temperature Dew Point Pressure Wind Wind Speed Wind Gust Humidity Rainfall Rate (Hourly) solar Conditions
00:00 1.5 °C -0.7 °C 1026.3 hPa NNW 6.4 km/h 12.9 km/h 85 % 0 mm 0 W/m2
00:05 1.5 °C -0.7 °C 1026.3 hPa West 8 km/h 17.7 km/h 85 % 0 mm 0 W/m2
00:15 1.6 °C -0.7 °C 1026.3 hPa NW 9.7 km/h 11.3 km/h 85 % 0 mm 0 W/m2
00:20 1.6 °C -0.7 °C 1026.3 hPa NNW 8 km/h 8 km/h 85 % 0 mm 0 W/m2
00:25 1.6 °C -0.6 °C 1026.3 hPa NNW 8 km/h 9.7 km/h 86 % 0 mm 0 W/m2
00:35 1.6 °C -0.6 °C 1026.3 hPa NNW 8 km/h 11.3 km/h 86 % 0 mm 0 W/m2
00:40 1.6 °C -0.4 °C 1026.3 hPa NNE 8 km/h 11.3 km/h 87 % 0 mm 0 W/m2
00:50 1.6 °C -0.4 °C 1026.3 hPa NNW 9.7 km/h 14.5 km/h 87 % 0 mm 0 W/m2
00:55 1.6 °C -0.2 °C 1026 hPa NNW 9.7 km/h 14.5 km/h 88 % 0 mm 0 W/m2
01:05 1.5 °C -0.3 °C 1026 hPa North 9.7 km/h 12.9 km/h 88 % 0 mm 0 W/m2
01:10 1.6 °C -0.2 °C 1026 hPa NW 11.3 km/h 17.7 km/h 88 % 0 mm 0 W/m2
01:20 1.6 °C -0.2 °C 1026 hPa NNW 9.7 km/h 9.7 km/h 88 % 0 mm 0 W/m2
01:25 1.5 °C -0.1 °C 1026 hPa NNW 9.7 km/h 11.3 km/h 89 % 0 mm 0 W/m2
01:30 1.5 °C -0.1 °C 1026 hPa NNW 9.7 km/h 9.7 km/h 89 % 0 mm 0 W/m2
01:35 1.5 °C -0.1 °C 1026 hPa North 8 km/h 17.7 km/h 89 % 0 mm 0 W/m2
01:40 1.6 °C -0.1 °C 1026 hPa NW 9.7 km/h 17.7 km/h 89 % 0 mm 0 W/m2
01:50 1.6 °C 0.1 °C 1025.6 hPa NNW 11.3 km/h 17.7 km/h 90 % 0 mm 0 W/m2
02:00 1.6 °C 0.2 °C 1025.6 hPa NW 11.3 km/h 11.3 km/h 91 % 0 mm 0 W/m2
02:05 1.6 °C 0.2 °C 1025.6 hPa NNW 11.3 km/h 16.1 km/h 91 % 0 mm 0 W/m2
02:10 1.5 °C 0.2 °C 1025.6 hPa NW 11.3 km/h 17.7 km/h 91 % 0 mm 0 W/m2
02:20 1.4 °C 0.3 °C 1025.6 hPa North 8 km/h 17.7 km/h 92 % 0 mm 0 W/m2
02:30 1.4 °C 0.4 °C 1025.3 hPa NNW 11.3 km/h 17.7 km/h 93 % 0 mm 0 W/m2
02:35 1.4 °C 0.4 °C 1025.3 hPa NNE 12.9 km/h 17.7 km/h 93 % 0 mm 0 W/m2
02:40 1.4 °C 0.4 °C 1025.3 hPa NNW 11.3 km/h 11.3 km/h 93 % 0 mm 0 W/m2
02:45 1.4 °C 0.4 °C 1025.3 hPa NNW 11.3 km/h 17.7 km/h 93 % 0 mm 0 W/m2
02:50 1.3 °C 0.3 °C 1025.3 hPa NW 11.3 km/h 17.7 km/h 93 % 0 mm 0 W/m2
03:00 1.3 °C 0.5 °C 1025.3 hPa NNW 9.7 km/h 9.7 km/h 94 % 0 mm 0 W/m2
03:05 1.3 °C 0.5 °C 1024.9 hPa NNW 11.3 km/h 11.3 km/h 94 % 0 mm 0 W/m2
03:15 1.3 °C 0.5 °C 1024.9 hPa NNW 9.7 km/h 16.1 km/h 94 % 0 mm 0 W/m2
03:20 1.4 °C 0.6 °C 1024.9 hPa NNW 11.3 km/h 11.3 km/h 94 % 0 mm 0 W/m2
03:25 1.4 °C 0.6 °C 1024.9 hPa NW 12.9 km/h 12.9 km/h 94 % 0 mm 0 W/m2
03:30 1.4 °C 0.6 °C 1024.9 hPa NNW 11.3 km/h 11.3 km/h 94 % 0 mm 0 W/m2
03:35 1.3 °C 0.5 °C 1024.9 hPa NW 11.3 km/h 12.9 km/h 94 % 0 mm 0 W/m2
03:40 1.4 °C 0.7 °C 1024.9 hPa NNW 11.3 km/h 11.3 km/h 95 % 0 mm 0 W/m2
03:50 1.3 °C 0.6 °C 1024.9 hPa NNW 11.3 km/h 11.3 km/h 95 % 0 mm 0 W/m2
03:55 1.3 °C 0.6 °C 1024.9 hPa NNW 11.3 km/h 12.9 km/h 95 % 0 mm 0 W/m2
04:00 1.3 °C 0.6 °C 1024.9 hPa NNW 9.7 km/h 9.7 km/h 95 % 0 mm 0 W/m2
04:10 1.3 °C 0.6 °C 1024.9 hPa NW 9.7 km/h 9.7 km/h 95 % 0 mm 0 W/m2
04:15 1.3 °C 0.6 °C 1024.9 hPa North 9.7 km/h 14.5 km/h 95 % 0 mm 0 W/m2
04:25 1.3 °C 0.6 °C 1024.9 hPa North 8 km/h 19.3 km/h 95 % 0 mm 0 W/m2
04:30 1.2 °C 0.5 °C 1024.9 hPa NNE 8 km/h 8 km/h 95 % 0 mm 0 W/m2
04:35 1.2 °C 0.5 °C 1024.9 hPa North 9.7 km/h 11.3 km/h 95 % 0 mm 0 W/m2
04:40 1.2 °C 0.5 °C 1024.9 hPa NNE 9.7 km/h 17.7 km/h 95 % 0 mm 0 W/m2
04:45 1.2 °C 0.5 °C 1024.9 hPa NNW 9.7 km/h 17.7 km/h 95 % 0 mm 0 W/m2
04:50 1.2 °C 0.7 °C 1025.3 hPa NNW 8 km/h 17.7 km/h 96 % 0 mm 0 W/m2
04:55 1.2 °C 0.7 °C 1025.3 hPa North 9.7 km/h 17.7 km/h 96 % 0 mm 0 W/m2
05:00 1.2 °C 0.7 °C 1024.9 hPa NNW 9.7 km/h 17.7 km/h 96 % 0 mm 0 W/m2
05:10 1.3 °C 0.8 °C 1025.3 hPa NNE 11.3 km/h 17.7 km/h 96 % 0 mm 0 W/m2
05:20 1.4 °C 0.8 °C 1025.3 hPa North 9.7 km/h 17.7 km/h 96 % 0 mm 0 W/m2
05:25 1.4 °C 0.9 °C 1025.3 hPa North 11.3 km/h 17.7 km/h 96 % 0 mm 0 W/m2
05:30 1.5 °C 0.9 °C 1025.3 hPa NW 11.3 km/h 17.7 km/h 96 % 0 mm 0 W/m2
05:35 1.5 °C 0.9 °C 1025.3 hPa NNW 11.3 km/h 19.3 km/h 96 % 0 mm 0 W/m2
05:40 1.5 °C 0.9 °C 1024.9 hPa NNW 11.3 km/h 17.7 km/h 96 % 0 mm 0 W/m2
05:50 1.5 °C 0.9 °C 1025.3 hPa North 12.9 km/h 17.7 km/h 96 % 0 mm 0 W/m2
05:55 1.5 °C 0.9 °C 1025.3 hPa North 12.9 km/h 17.7 km/h 96 % 0 mm 0 W/m2
06:00 1.5 °C 0.9 °C 1025.3 hPa North 11.3 km/h 11.3 km/h 96 % 0 mm 0 W/m2
06:05 1.5 °C 0.9 °C 1025.3 hPa NNE 11.3 km/h 17.7 km/h 96 % 0 mm 0 W/m2
06:10 1.5 °C 0.9 °C 1024.9 hPa North 11.3 km/h 17.7 km/h 96 % 0 mm 0 W/m2
06:20 1.5 °C 0.9 °C 1024.9 hPa North 9.7 km/h 9.7 km/h 96 % 0 mm 0 W/m2
06:30 1.6 °C 1 °C 1024.9 hPa NNW 8 km/h 8 km/h 96 % 0 mm 0 W/m2
06:35 1.6 °C 1 °C 1024.9 hPa North 6.4 km/h 17.7 km/h 96 % 0 mm 0 W/m2
06:40 1.6 °C 1 °C 1024.9 hPa North 8 km/h 17.7 km/h 96 % 0 mm 0 W/m2
06:45 1.6 °C 1 °C 1024.9 hPa NNW 6.4 km/h 17.7 km/h 96 % 0 mm 0 W/m2
06:50 1.6 °C 1.1 °C 1024.9 hPa NNW 8 km/h 17.7 km/h 96 % 0 mm 0 W/m2
07:00 1.7 °C 1.1 °C 1024.9 hPa NNE 8 km/h 8 km/h 96 % 0 mm 0 W/m2
07:05 1.7 °C 1.1 °C 1024.9 hPa NNE 6.4 km/h 11.3 km/h 96 % 0 mm 0 W/m2
07:10 1.7 °C 1.2 °C 1024.9 hPa NNW 8 km/h 17.7 km/h 96 % 0 mm 0 W/m2
07:15 1.7 °C 1.2 °C 1024.9 hPa North 9.7 km/h 17.7 km/h 96 % 0 mm 0 W/m2
07:25 1.8 °C 1.3 °C 1025.3 hPa NW 4.8 km/h 12.9 km/h 96 % 0 mm 0 W/m2
07:35 1.9 °C 1.4 °C 1025.3 hPa NE 6.4 km/h 17.7 km/h 97 % 0 mm 0 W/m2
07:40 1.9 °C 1.5 °C 1025.3 hPa North 6.4 km/h 17.7 km/h 97 % 0 mm 0 W/m2
07:45 2 °C 1.6 °C 1025.3 hPa NE 6.4 km/h 17.7 km/h 97 % 0 mm 0 W/m2
07:50 2 °C 1.6 °C 1025.3 hPa NNE 8 km/h 8 km/h 97 % 0 mm 0 W/m2
07:55 2.1 °C 1.6 °C 1025.3 hPa NNE 8 km/h 17.7 km/h 97 % 0 mm 0 W/m2
08:05 2.1 °C 1.6 °C 1025.6 hPa East 4.8 km/h 17.7 km/h 97 % 0 mm 0 W/m2
08:10 2.1 °C 1.6 °C 1025.6 hPa NNE 3.2 km/h 17.7 km/h 97 % 0 mm 0 W/m2
08:15 2.1 °C 1.7 °C 1025.6 hPa NNW 3.2 km/h 17.7 km/h 97 % 0 mm 0 W/m2
08:25 2.1 °C 1.6 °C 1025.6 hPa ENE 1.6 km/h 17.7 km/h 97 % 0 mm 0 W/m2
08:30 2.1 °C 1.6 °C 1026 hPa ENE 1.6 km/h 1.6 km/h 97 % 1.27 mm 0 W/m2
08:40 2 °C 1.6 °C 1026 hPa ENE 1.6 km/h 1.6 km/h 97 % 1.02 mm 0 W/m2
08:45 2 °C 1.6 °C 1026 hPa NE 3.2 km/h 3.2 km/h 97 % 1.02 mm 0 W/m2
08:50 2 °C 1.6 °C 1026 hPa NE 1.6 km/h 1.6 km/h 97 % 1.02 mm 0 W/m2
08:55 2 °C 1.6 °C 1026 hPa NE 1.6 km/h 17.7 km/h 97 % 1.02 mm 0 W/m2
09:00 2 °C 1.6 °C 1026 hPa Calm   17.7 km/h 97 % 0 mm 5 W/m2
09:10 2.1 °C 1.6 °C 1026 hPa ENE 1.6 km/h 1.6 km/h 97 % 0 mm 5 W/m2
09:15 2.1 °C 1.6 °C 1026 hPa ENE 1.6 km/h 17.7 km/h 97 % 0 mm 5 W/m2
09:20 2.1 °C 1.6 °C 1026 hPa NNE 1.6 km/h 17.7 km/h 97 % 1.02 mm 5 W/m2
09:25 2.1 °C 1.7 °C 1026 hPa North 3.2 km/h 17.7 km/h 97 % 1.02 mm 9 W/m2
09:30 2.1 °C 1.7 °C 1026 hPa NNE 3.2 km/h 17.7 km/h 97 % 1.02 mm 7 W/m2
09:35 2.2 °C 1.7 °C 1026 hPa NE 3.2 km/h 17.7 km/h 97 % 1.02 mm 7 W/m2
09:40 2.2 °C 1.8 °C 1026 hPa NE 3.2 km/h 17.7 km/h 97 % 0 mm 7 W/m2
09:45 2.3 °C 1.8 °C 1026 hPa NNE 3.2 km/h 17.7 km/h 97 % 0 mm 9 W/m2
09:50 2.3 °C 1.8 °C 1026 hPa ENE 4.8 km/h 17.7 km/h 97 % 0 mm 7 W/m2
09:55 2.3 °C 1.9 °C 1026 hPa ENE 4.8 km/h 17.7 km/h 97 % 0 mm 7 W/m2
10:00 2.4 °C 1.9 °C 1026 hPa East 4.8 km/h 4.8 km/h 97 % 0 mm 9 W/m2
10:10 2.4 °C 1.9 °C 1026 hPa NE 4.8 km/h 17.7 km/h 97 % 0 mm 9 W/m2
10:15 2.4 °C 1.9 °C 1026 hPa ENE 4.8 km/h 17.7 km/h 97 % 0 mm 11 W/m2
10:25 2.4 °C 1.9 °C 1026 hPa ENE 4.8 km/h 17.7 km/h 97 % 0 mm 25 W/m2
10:35 2.4 °C 2 °C 1026 hPa NNE 1.6 km/h 17.7 km/h 97 % 0 mm 18 W/m2
10:40 2.4 °C 2 °C 1026 hPa NNE 1.6 km/h 17.7 km/h 97 % 0 mm 28 W/m2
10:45 2.5 °C 2.1 °C 1026 hPa NNE 3.2 km/h 17.7 km/h 97 % 0 mm 26 W/m2
10:50 2.6 °C 2.1 °C 1026 hPa NE 3.2 km/h 17.7 km/h 97 % 0 mm 32 W/m2
10:55 2.7 °C 2.2 °C 1026 hPa NNE 3.2 km/h 17.7 km/h 97 % 0 mm 23 W/m2
11:00 2.7 °C 2.3 °C 1026 hPa NNE 3.2 km/h 3.2 km/h 97 % 0 mm 26 W/m2
11:10 2.8 °C 2.3 °C 1026 hPa ENE 4.8 km/h 4.8 km/h 97 % 0 mm 14 W/m2
11:15 2.8 °C 2.4 °C 1026 hPa NNW 6.4 km/h 6.4 km/h 97 % 0 mm 12 W/m2
11:20 2.8 °C 2.4 °C 1026.3 hPa NNE 6.4 km/h 17.7 km/h 97 % 0 mm 12 W/m2
11:30 2.8 °C 2.4 °C 1026.3 hPa East 6.4 km/h 6.4 km/h 97 % 0 mm 23 W/m2
11:40 2.8 °C 2.4 °C 1026.3 hPa ENE 3.2 km/h 17.7 km/h 97 % 0 mm 26 W/m2
11:45 2.8 °C 2.4 °C 1026 hPa ENE 3.2 km/h 17.7 km/h 97 % 0 mm 19 W/m2
11:50 2.8 °C 2.4 °C 1026 hPa ENE 4.8 km/h 4.8 km/h 97 % 0 mm 21 W/m2
11:55 2.8 °C 2.3 °C 1026.3 hPa NNE 6.4 km/h 9.7 km/h 97 % 0 mm 19 W/m2
12:00 2.7 °C 2.2 °C 1026.3 hPa NE 8 km/h 17.7 km/h 96 % 0 mm 12 W/m2
12:05 2.7 °C 2.1 °C 1026 hPa NE 8 km/h 17.7 km/h 96 % 0 mm 26 W/m2
12:10 2.7 °C 2.1 °C 1026 hPa ESE 8 km/h 8 km/h 96 % 0 mm 30 W/m2
12:15 2.7 °C 2.1 °C 1026 hPa North 6.4 km/h 17.7 km/h 96 % 0 mm 28 W/m2
12:25 2.7 °C 2.2 °C 1026 hPa Calm   17.7 km/h 96 % 0 mm 23 W/m2
12:30 2.7 °C 2.2 °C 1026 hPa NE 3.2 km/h 3.2 km/h 96 % 0 mm 28 W/m2
12:40 2.7 °C 2.1 °C 1026 hPa ENE 6.4 km/h 6.4 km/h 96 % 0 mm 19 W/m2
12:45 2.7 °C 2.1 °C 1026 hPa ENE 8 km/h 8 km/h 96 % 0 mm 26 W/m2
12:50 2.6 °C 2.1 °C 1026 hPa East 4.8 km/h 17.7 km/h 96 % 0 mm 16 W/m2
13:00 2.6 °C 2 °C 1026 hPa NNE 6.4 km/h 6.4 km/h 96 % 0 mm 33 W/m2
13:05 2.5 °C 1.9 °C 1026 hPa NE 4.8 km/h 8 km/h 96 % 0 mm 35 W/m2
13:15 2.5 °C 1.9 °C 1026 hPa North 6.4 km/h 17.7 km/h 96 % 0 mm 30 W/m2
13:20 2.5 °C 1.9 °C 1026 hPa NE 9.7 km/h 17.7 km/h 96 % 0 mm 18 W/m2
13:25 2.4 °C 1.9 °C 1026 hPa ENE 9.7 km/h 17.7 km/h 96 % 0 mm 16 W/m2
13:30 2.4 °C 1.9 °C 1026 hPa East 9.7 km/h 9.7 km/h 96 % 0 mm 14 W/m2
13:40 2.4 °C 1.8 °C 1026 hPa NE 8 km/h 8 km/h 96 % 0 mm 18 W/m2
13:45 2.4 °C 1.8 °C 1026 hPa ENE 8 km/h 17.7 km/h 96 % 0 mm 12 W/m2
13:50 2.4 °C 1.8 °C 1026 hPa NE 4.8 km/h 17.7 km/h 96 % 0 mm 18 W/m2
13:55 2.4 °C 1.8 °C 1026 hPa ENE 4.8 km/h 17.7 km/h 96 % 0 mm 19 W/m2
14:00 2.4 °C 1.8 °C 1026 hPa ENE 4.8 km/h 4.8 km/h 96 % 0 mm 21 W/m2
14:05 2.4 °C 1.8 °C 1026 hPa ESE 4.8 km/h 17.7 km/h 96 % 0 mm 23 W/m2
14:10 2.4 °C 1.8 °C 1026 hPa NNE 6.4 km/h 17.7 km/h 96 % 0 mm 18 W/m2
14:20 2.5 °C 1.9 °C 1026 hPa NE 6.4 km/h 17.7 km/h 96 % 0 mm 11 W/m2
14:30 2.6 °C 2 °C 1026 hPa NE 8 km/h 17.7 km/h 96 % 0 mm 12 W/m2
14:35 2.6 °C 2 °C 1026 hPa NE 8 km/h 17.7 km/h 96 % 0 mm 12 W/m2
14:40 2.6 °C 2.1 °C 1026 hPa NNE 9.7 km/h 9.7 km/h 96 % 0 mm 16 W/m2
14:45 2.6 °C 2.1 °C 1025.6 hPa North 9.7 km/h 14.5 km/h 96 % 0 mm 16 W/m2
14:55 2.6 °C 2.1 °C 1025.6 hPa East 9.7 km/h 11.3 km/h 96 % 0 mm 14 W/m2
15:00 2.6 °C 2.1 °C 1025.6 hPa ENE 9.7 km/h 17.7 km/h 96 % 0 mm 12 W/m2
15:05 2.6 °C 2.1 °C 1025.6 hPa East 9.7 km/h 17.7 km/h 96 % 0 mm 11 W/m2
15:10 2.7 °C 2.1 °C 1025.6 hPa East 8 km/h 17.7 km/h 96 % 0 mm 9 W/m2
15:15 2.7 °C 2.1 °C 1025.6 hPa ENE 8 km/h 17.7 km/h 96 % 0 mm 9 W/m2
15:20 2.7 °C 2.1 °C 1025.6 hPa East 6.4 km/h 6.4 km/h 96 % 0 mm 9 W/m2
15:25 2.7 °C 2.1 °C 1025.6 hPa NE 6.4 km/h 8 km/h 96 % 0 mm 5 W/m2
15:35 2.7 °C 2.1 °C 1025.6 hPa East 4.8 km/h 17.7 km/h 96 % 0 mm 7 W/m2
15:40 2.7 °C 2.2 °C 1025.6 hPa ENE 4.8 km/h 17.7 km/h 96 % 0 mm 5 W/m2
15:50 2.7 °C 2.2 °C 1026 hPa ENE 4.8 km/h 4.8 km/h 96 % 0 mm 9 W/m2
15:55 2.7 °C 2.2 °C 1026 hPa NE 1.6 km/h 17.7 km/h 96 % 0 mm 12 W/m2
16:05 2.8 °C 2.2 °C 1026 hPa NE 1.6 km/h 17.7 km/h 96 % 0 mm 9 W/m2
16:10 2.8 °C 2.3 °C 1025.6 hPa NNE 4.8 km/h 17.7 km/h 96 % 0 mm 12 W/m2
16:15 2.9 °C 2.3 °C 1026 hPa NNE 8 km/h 17.7 km/h 96 % 0 mm 14 W/m2
16:20 2.9 °C 2.3 °C 1025.6 hPa NE 9.7 km/h 17.7 km/h 96 % 0 mm 9 W/m2
16:30 2.8 °C 2.3 °C 1025.6 hPa NE 8 km/h 17.7 km/h 96 % 0 mm 5 W/m2
16:35 2.8 °C 2.3 °C 1025.6 hPa East 8 km/h 17.7 km/h 96 % 0 mm 7 W/m2
16:40 2.8 °C 2.3 °C 1026 hPa NE 8 km/h 8 km/h 96 % 0 mm 0 W/m2
16:45 2.8 °C 2.3 °C 1026 hPa NNE 8 km/h 17.7 km/h 96 % 0 mm 0 W/m2
16:50 2.8 °C 2.3 °C 1026 hPa NNE 8 km/h 17.7 km/h 96 % 0 mm 0 W/m2
16:55 2.8 °C 2.3 °C 1026 hPa NE 9.7 km/h 17.7 km/h 96 % 0 mm 0 W/m2
17:05 2.9 °C 2.3 °C 1026 hPa ENE 8 km/h 17.7 km/h 96 % 0 mm 0 W/m2
17:10 2.9 °C 2.3 °C 1026 hPa ESE 4.8 km/h 4.8 km/h 96 % 0 mm 0 W/m2
17:15 2.9 °C 2.3 °C 1026 hPa ENE 3.2 km/h 17.7 km/h 96 % 0 mm 0 W/m2
17:20 2.9 °C 2.4 °C 1026 hPa North 4.8 km/h 17.7 km/h 96 % 0 mm 0 W/m2
17:25 2.9 °C 2.4 °C 1026 hPa ENE 4.8 km/h 17.7 km/h 96 % 0 mm 0 W/m2
17:35 2.9 °C 2.4 °C 1026 hPa NNE 4.8 km/h 8 km/h 96 % 0 mm 0 W/m2
17:40 2.9 °C 2.4 °C 1026 hPa NE 6.4 km/h 17.7 km/h 96 % 0 mm 0 W/m2
17:45 2.9 °C 2.3 °C 1026 hPa ENE 9.7 km/h 17.7 km/h 96 % 0 mm 0 W/m2
17:55 2.9 °C 2.3 °C 1026.3 hPa NE 8 km/h 17.7 km/h 96 % 0 mm 0 W/m2
18:00 2.9 °C 2.3 °C 1026.3 hPa NNE 8 km/h 17.7 km/h 96 % 0 mm 0 W/m2
18:05 2.9 °C 2.3 °C 1026.3 hPa NE 9.7 km/h 17.7 km/h 96 % 0 mm 0 W/m2
18:10 2.8 °C 2.3 °C 1026.3 hPa NNE 9.7 km/h 9.7 km/h 96 % 0 mm 0 W/m2
18:15 2.8 °C 2.3 °C 1026.3 hPa North 4.8 km/h 17.7 km/h 96 % 0 mm 0 W/m2
18:20 2.8 °C 2.1 °C 1026.3 hPa North 3.2 km/h 17.7 km/h 95 % 0 mm 0 W/m2
18:30 2.8 °C 2.1 °C 1026.3 hPa NNE 4.8 km/h 17.7 km/h 95 % 0 mm 0 W/m2
18:40 2.8 °C 2.2 °C 1026.3 hPa North 8 km/h 17.7 km/h 96 % 0 mm 0 W/m2
18:45 2.8 °C 2.1 °C 1026.3 hPa NE 4.8 km/h 17.7 km/h 95 % 0 mm 0 W/m2
18:50 2.8 °C 2.1 °C 1026.3 hPa NNE 6.4 km/h 17.7 km/h 95 % 0 mm 0 W/m2
18:55 2.8 °C 2.1 °C 1026.3 hPa NE 8 km/h 17.7 km/h 95 % 0 mm 0 W/m2
19:00 2.7 °C 2 °C 1026.3 hPa NNE 6.4 km/h 17.7 km/h 95 % 0 mm 0 W/m2
19:10 2.7 °C 2 °C 1026.3 hPa NE 4.8 km/h 4.8 km/h 95 % 0 mm 0 W/m2
19:15 2.7 °C 2 °C 1026.3 hPa NE 4.8 km/h 17.7 km/h 95 % 0 mm 0 W/m2
19:20 2.7 °C 2 °C 1026.3 hPa NE 4.8 km/h 17.7 km/h 95 % 0 mm 0 W/m2
19:25 2.8 °C 2.1 °C 1026.3 hPa NE 6.4 km/h 17.7 km/h 95 % 0 mm 0 W/m2
19:30 2.7 °C 2 °C 1026.6 hPa ESE 8 km/h 8 km/h 95 % 0 mm 0 W/m2
19:40 2.7 °C 2 °C 1026.6 hPa NNE 6.4 km/h 17.7 km/h 95 % 0 mm 0 W/m2
19:50 2.7 °C 2 °C 1026.6 hPa NNE 9.7 km/h 19.3 km/h 95 % 0 mm 0 W/m2
19:55 2.7 °C 2 °C 1026.6 hPa NE 11.3 km/h 19.3 km/h 95 % 0 mm 0 W/m2
20:00 2.7 °C 2 °C 1026.6 hPa NNE 11.3 km/h 11.3 km/h 95 % 0 mm 0 W/m2
20:05 2.7 °C 2.2 °C 1026.6 hPa NNE 11.3 km/h 14.5 km/h 96 % 0 mm 0 W/m2
20:10 2.7 °C 2.2 °C 1026.6 hPa NE 9.7 km/h 17.7 km/h 96 % 0 mm 0 W/m2
20:15 2.7 °C 2.2 °C 1026.6 hPa NE 8 km/h 17.7 km/h 96 % 0 mm 0 W/m2
20:20 2.7 °C 2.2 °C 1026.6 hPa ENE 8 km/h 8 km/h 96 % 0 mm 0 W/m2
20:25 2.7 °C 2.2 °C 1026.6 hPa East 8 km/h 17.7 km/h 96 % 0 mm 0 W/m2
20:35 2.8 °C 2.2 °C 1026.6 hPa ENE 9.7 km/h 17.7 km/h 96 % 0 mm 0 W/m2
20:40 2.8 °C 2.2 °C 1026.3 hPa NE 8 km/h 17.7 km/h 96 % 0 mm 0 W/m2
20:50 2.8 °C 2.3 °C 1026.3 hPa NE 11.3 km/h 22.5 km/h 96 % 0 mm 0 W/m2
20:55 2.9 °C 2.3 °C 1026.3 hPa NE 11.3 km/h 22.5 km/h 96 % 0 mm 0 W/m2
21:00 2.9 °C 2.3 °C 1026.3 hPa NNE 11.3 km/h 17.7 km/h 96 % 0 mm 0 W/m2
21:05 2.9 °C 2.4 °C 1026.3 hPa NNE 11.3 km/h 17.7 km/h 96 % 0 mm 0 W/m2
21:10 2.9 °C 2.4 °C 1026.3 hPa NNE 11.3 km/h 17.7 km/h 96 % 0 mm 0 W/m2
21:20 3 °C 2.4 °C 1026.6 hPa NE 6.4 km/h 17.7 km/h 96 % 0 mm 0 W/m2
21:35 3 °C 2.4 °C 1026.6 hPa East 11.3 km/h 17.7 km/h 96 % 0 mm 0 W/m2
21:40 3 °C 2.4 °C 1026.6 hPa NE 11.3 km/h 11.3 km/h 96 % 0 mm 0 W/m2
21:45 3 °C 2.4 °C 1026.6 hPa ENE 12.9 km/h 16.1 km/h 96 % 0 mm 0 W/m2
21:50 3 °C 2.4 °C 1026.6 hPa ESE 14.5 km/h 17.7 km/h 96 % 0 mm 0 W/m2
21:55 3 °C 2.4 °C 1026.6 hPa East 11.3 km/h 17.7 km/h 96 % 0 mm 0 W/m2
22:00 3 °C 2.4 °C 1026.6 hPa NE 9.7 km/h 17.7 km/h 96 % 0 mm 0 W/m2
22:10 2.9 °C 2.3 °C 1026.6 hPa ENE 12.9 km/h 17.7 km/h 96 % 0 mm 0 W/m2
22:15 2.9 °C 2.3 °C 1026.6 hPa ENE 14.5 km/h 17.7 km/h 96 % 0 mm 0 W/m2
22:20 2.9 °C 2.3 °C 1026.6 hPa NNE 12.9 km/h 17.7 km/h 96 % 0 mm 0 W/m2
22:30 2.9 °C 2.3 °C 1026.6 hPa East 9.7 km/h 17.7 km/h 96 % 0 mm 0 W/m2
22:35 2.9 °C 2.3 °C 1026.6 hPa NE 9.7 km/h 17.7 km/h 96 % 0 mm 0 W/m2
22:40 2.8 °C 2.3 °C 1027 hPa NNE 11.3 km/h 17.7 km/h 96 % 0 mm 0 W/m2
22:45 2.8 °C 2.3 °C 1026.6 hPa ENE 12.9 km/h 17.7 km/h 96 % 0 mm 0 W/m2
22:55 2.8 °C 2.2 °C 1027 hPa ENE 11.3 km/h 14.5 km/h 96 % 0 mm 0 W/m2
23:00 2.8 °C 2.2 °C 1027 hPa East 11.3 km/h 17.7 km/h 96 % 0 mm 0 W/m2
23:05 2.7 °C 2.2 °C 1027 hPa East 12.9 km/h 17.7 km/h 96 % 0 mm 0 W/m2
23:10 2.7 °C 2.2 °C 1027 hPa ENE 14.5 km/h 17.7 km/h 96 % 0 mm 0 W/m2
23:15 2.7 °C 2.2 °C 1027 hPa NE 12.9 km/h 17.7 km/h 96 % 0 mm 0 W/m2
23:20 2.7 °C 2.1 °C 1027 hPa East 9.7 km/h 17.7 km/h 96 % 0 mm 0 W/m2
23:25 2.7 °C 2.1 °C 1027 hPa ESE 9.7 km/h 17.7 km/h 96 % 0 mm 0 W/m2
23:35 2.6 °C 2.1 °C 1027 hPa East 9.7 km/h 17.7 km/h 96 % 0 mm 0 W/m2
23:40 2.6 °C 2.1 °C 1027 hPa NE 9.7 km/h 9.7 km/h 96 % 0 mm 0 W/m2
23:45 2.6 °C 2.1 °C 1027 hPa NE 9.7 km/h 12.9 km/h 96 % 0 mm 0 W/m2
23:50 2.6 °C 2 °C 1027 hPa East 9.7 km/h 9.7 km/h 96 % 0 mm 0 W/m2
23:55 2.6 °C 2 °C 1027 hPa ENE 11.3 km/h 17.7 km/h 96 % 0 mm 0 W/m2
Delerius-Weather
Compliments of Weather Underground - 2 mb

Data updates at regular intervals.